QPF
0.01 0.03 0.02 0.01 0.01 0.01 0.01 0.01 0.02 0.03 0.02 0.02 0.03 0.03 0.03 0.04 0.03 0.02 0.04 0.05 0.05 0.05 0.05 0.05 0.06 0.05 0.04 0.04 0.06 0.05 0.04 0.05 0.06 0.06 0.07 0.07 0.09 0.10 0.11 0.13 0.13 0.12 0.09
0.03 0.03 0.01 0.01 0.01 0.01 0.00 0.01 0.01 0.02 0.02 0.03 0.04 0.02 0.02 0.03 0.02 0.02 0.03 0.03 0.03 0.04 0.04 0.05 0.05 0.06 0.07 0.07 0.08 0.07 0.07 0.07 0.07 0.08 0.10 0.10 0.10 0.11 0.11 0.09 0.08 0.08 0.07
0.04 0.02 0.01 0.01 0.01 0.01 0.01 0.01 0.01 0.02 0.02 0.03 0.04 0.03 0.03 0.03 0.01 0.01 0.01 0.01 0.01 0.02 0.04 0.05 0.06 0.09 0.17 0.20 0.17 0.13 0.10 0.10 0.10 0.13 0.14 0.13 0.13 0.13 0.11 0.09 0.08 0.08 0.07
0.03 0.02 0.01 0.01 0.01 0.02 0.01 0.01 0.01 0.02 0.02 0.02 0.02 0.03 0.04 0.03 0.02 0.02 0.01 0.01 0.01 0.01 0.02 0.02 0.04 0.08 0.16 0.18 0.15 0.13 0.08 0.08 0.08 0.11 0.11 0.11 0.11 0.10 0.09 0.09 0.08 0.07 0.06
0.02 0.02 0.02 0.01 0.01 0.02 0.01 0.01 0.01 0.01 0.01 0.01 0.01 0.02 0.03 0.03 0.03 0.03 0.02 0.01 0.02 0.01 0.01 0.02 0.02 0.04 0.06 0.06 0.05 0.06 0.05 0.05 0.06 0.06 0.07 0.08 0.08 0.07 0.07 0.06 0.06 0.06 0.06
0.01 0.02 0.02 0.02 0.02 0.01 0.01 0.01 0.01 0.01 0.01 0.01 0.01 0.01 0.02 0.02 0.02 0.03 0.02 0.02 0.02 0.01 0.01 0.01 0.02 0.02 0.03 0.04 0.05 0.05 0.06 0.06 0.05 0.05 0.07 0.08 0.09 0.07 0.07 0.06 0.05 0.05 0.05
0.01 0.02 0.02 0.02 0.02 0.01 0.02 0.02 0.01 0.01 0.00 0.00 0.00 0.01 0.01 0.01 0.01 0.01 0.01 0.01 0.01 0.01 0.01 0.01 0.01 0.02 0.03 0.04 0.05 0.07 0.07 0.05 0.05 0.07 0.10 0.09 0.08 0.08 0.08 0.06 0.04 0.04 0.04
0.01 0.01 0.02 0.02 0.02 0.02 0.01 0.02 0.01 0.01 0.00 0.01 0.01 0.01 0.01 0.02 0.01 0.01 0.01 0.00 0.00 0.00 0.01 0.01 0.01 0.02 0.02 0.02 0.03 0.05 0.07 0.08 0.08 0.09 0.10 0.09 0.07 0.06 0.07 0.07 0.06 0.04 0.04
0.01 0.01 0.01 0.02 0.03 0.02 0.02 0.02 0.01 0.01 0.01 0.01 0.01 0.01 0.01 0.02 0.03 0.01 0.01 0.01 0.01 0.01 0.01 0.01 0.02 0.02 0.03 0.02 0.03 0.03 0.05 0.13 0.12 0.11 0.11 0.09 0.08 0.08 0.08 0.08 0.08 0.06 0.06
0.01 0.01 0.01 0.01 0.01 0.02 0.03 0.02 0.02 0.01 0.01 0.01 0.01 0.00 0.00 0.01 0.02 0.02 0.02 0.02 0.02 0.02 0.01 0.01 0.01 0.02 0.03 0.02 0.03 0.04 0.11 0.21 0.18 0.13 0.10 0.10 0.08 0.08 0.09 0.10 0.11 0.10 0.09
0.02 0.01 0.01 0.02 0.01 0.02 0.03 0.03 0.02 0.02 0.01 0.01 0.01 0.00 0.00 0.00 0.00 0.01 0.02 0.02 0.03 0.02 0.02 0.02 0.02 0.02 0.03 0.03 0.04 0.07 0.13 0.17 0.13 0.11 0.09 0.10 0.10 0.08 0.07 0.08 0.10 0.11 0.11
0.02 0.01 0.02 0.02 0.02 0.01 0.02 0.03 0.03 0.03 0.02 0.01 0.01 0.01 0.01 0.00 0.00 0.00 0.01 0.02 0.02 0.02 0.01 0.01 0.02 0.02 0.02 0.04 0.05 0.07 0.08 0.08 0.06 0.06 0.06 0.05 0.06 0.06 0.06 0.07 0.09 0.11 0.10
0.01 0.01 0.01 0.02 0.02 0.02 0.02 0.02 0.03 0.03 0.03 0.02 0.02 0.02 0.02 0.02 0.01 0.01 0.01 0.01 0.01 0.01 0.01 0.01 0.01 0.02 0.02 0.03 0.05 0.06 0.04 0.04 0.04 0.04 0.03 0.02 0.02 0.03 0.04 0.05 0.07 0.08 0.08
0.03 0.02 0.01 0.02 0.02 0.03 0.04 0.03 0.02 0.02 0.02 0.02 0.02 0.02 0.03 0.02 0.02 0.01 0.01 0.01 0.01 0.01 0.01 0.01 0.01 0.02 0.02 0.01 0.03 0.05 0.04 0.03 0.03 0.03 0.02 0.01 0.01 0.02 0.03 0.04 0.05 0.05 0.06
0.06 0.04 0.02 0.02 0.02 0.04 0.05 0.05 0.03 0.02 0.02 0.01 0.01 0.01 0.01 0.01 0.01 0.01 0.01 0.00 0.01 0.01 0.00 0.00 0.01 0.01 0.01 0.01 0.01 0.02 0.03 0.02 0.02 0.02 0.01 0.00 0.01 0.02 0.02 0.02 0.03 0.04 0.04
0.05 0.07 0.06 0.03 0.03 0.04 0.05 0.05 0.05 0.03 0.02 0.01 0.01 0.01 0.01 0.01 0.01 0.00 0.00 0.00 0.00 0.00 0.00 0.00 0.00 0.01 0.01 0.01 0.01 0.01 0.02 0.02 0.03 0.03 0.01 0.00 0.00 0.01 0.02 0.02 0.02 0.02 0.02
0.02 0.03 0.05 0.04 0.05 0.05 0.05 0.05 0.04 0.03 0.02 0.01 0.01 0.01 0.01 0.01 0.00 0.01 0.01 0.00 0.00 0.00 0.00 0.00 0.00 0.00 0.01 0.01 0.01 0.01 0.01 0.03 0.03 0.03 0.01 0.01 0.01 0.01 0.01 0.01 0.01 0.01 0.01
0.01 0.02 0.03 0.03 0.05 0.06 0.07 0.07 0.06 0.04 0.03 0.01 0.01 0.01 0.01 0.01 0.01 0.00 0.01 0.00 0.01 0.01 0.01 0.00 0.00 0.00 0.00 0.01 0.01 0.01 0.01 0.02 0.03 0.03 0.01 0.01 0.00 0.00 0.00 0.00 0.00 0.01 0.01
0.02 0.01 0.02 0.02 0.03 0.06 0.08 0.08 0.07 0.06 0.04 0.02 0.02 0.01 0.01 0.00 0.00 0.01 0.01 0.00 0.00 0.00 0.00 0.00 0.00 0.00 0.00 0.00 0.01 0.01 0.01 0.02 0.04 0.03 0.02 0.01 0.01 0.01 0.00 0.00 0.00 0.01 0.01
0.02 0.02 0.01 0.02 0.03 0.05 0.08 0.10 0.09 0.07 0.06 0.03 0.02 0.01 0.01 0.01 0.01 0.01 0.01 0.00 0.00 0.00 0.00 0.00 0.00 0.00 0.00 0.01 0.01 0.01 0.01 0.02 0.05 0.04 0.02 0.02 0.01 0.01 0.01 0.01 0.01 0.01 0.01
0.02 0.02 0.03 0.03 0.04 0.06 0.07 0.09 0.08 0.06 0.06 0.04 0.02 0.02 0.02 0.01 0.02 0.02 0.02 0.01 0.01 0.00 0.00 0.00 0.00 0.00 0.01 0.01 0.01 0.01 0.01 0.02 0.05 0.03 0.02 0.02 0.01 0.01 0.01 0.02 0.02 0.02 0.03
0.03 0.04 0.05 0.06 0.05 0.05 0.06 0.08 0.09 0.07 0.05 0.05 0.03 0.02 0.03 0.02 0.01 0.02 0.02 0.02 0.01 0.01 0.00 0.00 0.00 0.00 0.01 0.02 0.03 0.02 0.02 0.03 0.05 0.03 0.01 0.02 0.02 0.02 0.02 0.02 0.03 0.03 0.04
0.03 0.04 0.04 0.04 0.05 0.05 0.05 0.06 0.08 0.07 0.05 0.04 0.03 0.03 0.02 0.02 0.02 0.02 0.02 0.02 0.01 0.01 0.00 0.00 0.00 0.00 0.00 0.01 0.03 0.03 0.02 0.03 0.04 0.03 0.02 0.01 0.02 0.03 0.02 0.02 0.04 0.03 0.04
0.04 0.04 0.04 0.03 0.03 0.04 0.06 0.07 0.06 0.07 0.05 0.03 0.03 0.03 0.02 0.02 0.03 0.04 0.03 0.02 0.01 0.01 0.01 0.00 0.00 0.00 0.00 0.01 0.02 0.03 0.04 0.03 0.02 0.02 0.02 0.01 0.02 0.02 0.03 0.04 0.04 0.05 0.05
0.05 0.03 0.03 0.03 0.03 0.03 0.06 0.07 0.07 0.05 0.05 0.03 0.02 0.02 0.02 0.02 0.03 0.04 0.03 0.01 0.01 0.01 0.01 0.00 0.00 0.00 0.00 0.00 0.02 0.03 0.03 0.03 0.02 0.03 0.02 0.01 0.02 0.03 0.04 0.04 0.05 0.06 0.05
0.05 0.03 0.03 0.03 0.03 0.03 0.05 0.06 0.08 0.07 0.06 0.03 0.02 0.02 0.02 0.02 0.03 0.05 0.04 0.02 0.01 0.01 0.00 0.00 0.00 0.00 0.00 0.00 0.01 0.02 0.02 0.02 0.02 0.04 0.03 0.01 0.01 0.02 0.04 0.04 0.04 0.06 0.05
MSLP
1020.67 1020.72 1020.68 1020.58 1020.45 1020.33 1020.25 1020.23 1020.27 1020.35 1020.44 1020.52 1020.54 1020.51 1020.43 1020.30 1020.15 1019.99 1019.83 1019.68 1019.51 1019.33 1019.12 1018.90 1018.69 1018.49 1018.34 1018.24 1018.19 1018.17 1018.15 1018.10 1017.98 1017.79 1017.54 1017.23 1016.92 1016.63 1016.37 1016.15 1015.95 1015.75 1015.53
1021.42 1021.46 1021.44 1021.37 1021.28 1021.20 1021.15 1021.16 1021.22 1021.31 1021.41 1021.49 1021.52 1021.50 1021.44 1021.33 1021.18 1021.02 1020.83 1020.62 1020.39 1020.14 1019.87 1019.59 1019.33 1019.10 1018.94 1018.84 1018.80 1018.78 1018.76 1018.70 1018.58 1018.37 1018.10 1017.79 1017.47 1017.18 1016.92 1016.71 1016.53 1016.35 1016.15
1022.11 1022.14 1022.12 1022.08 1022.03 1022.00 1022.01 1022.06 1022.14 1022.25 1022.36 1022.44 1022.49 1022.49 1022.44 1022.35 1022.22 1022.05 1021.85 1021.60 1021.31 1020.99 1020.65 1020.31 1020.01 1019.75 1019.57 1019.46 1019.41 1019.39 1019.36 1019.28 1019.13 1018.91 1018.62 1018.29 1017.96 1017.67 1017.43 1017.25 1017.10 1016.96 1016.79
1022.76 1022.75 1022.73 1022.72 1022.71 1022.74 1022.80 1022.89 1023.00 1023.12 1023.24 1023.33 1023.39 1023.41 1023.39 1023.33 1023.22 1023.07 1022.85 1022.59 1022.26 1021.89 1021.49 1021.10 1020.75 1020.45 1020.24 1020.11 1020.04 1019.99 1019.93 1019.83 1019.65 1019.39 1019.07 1018.72 1018.38 1018.10 1017.88 1017.73 1017.62 1017.54 1017.43
1023.34 1023.30 1023.27 1023.27 1023.31 1023.38 1023.48 1023.61 1023.74 1023.88 1024.00 1024.10 1024.17 1024.21 1024.23 1024.21 1024.14 1024.01 1023.82 1023.56 1023.22 1022.82 1022.39 1021.96 1021.56 1021.23 1020.98 1020.81 1020.70 1020.61 1020.51 1020.35 1020.12 1019.81 1019.45 1019.08 1018.73 1018.45 1018.26 1018.15 1018.10 1018.08 1018.04
1023.87 1023.78 1023.73 1023.74 1023.80 1023.91 1024.04 1024.19 1024.33 1024.46 1024.58 1024.68 1024.76 1024.84 1024.89 1024.92 1024.92 1024.85 1024.71 1024.48 1024.16 1023.77 1023.33 1022.88 1022.45 1022.08 1021.79 1021.57 1021.40 1021.25 1021.08 1020.86 1020.57 1020.21 1019.81 1019.40 1019.05 1018.77 1018.60 1018.53 1018.53 1018.57 1018.60
1024.32 1024.18 1024.12 1024.12 1024.20 1024.32 1024.46 1024.61 1024.74 1024.86 1024.96 1025.05 1025.15 1025.25 1025.35 1025.45 1025.52 1025.54 1025.47 1025.30 1025.04 1024.68 1024.26 1023.82 1023.38 1022.99 1022.65 1022.38 1022.15 1021.93 1021.69 1021.39 1021.03 1020.61 1020.17 1019.74 1019.36 1019.09 1018.93 1018.90 1018.95 1019.05 1019.14
1024.71 1024.52 1024.43 1024.43 1024.50 1024.61 1024.74 1024.87 1024.98 1025.06 1025.14 1025.22 1025.32 1025.45 1025.61 1025.78 1025.93 1026.04 1026.07 1026.00 1025.81 1025.52 1025.14 1024.72 1024.30 1023.90 1023.53 1023.22 1022.93 1022.64 1022.33 1021.96 1021.54 1021.07 1020.59 1020.13 1019.74 1019.47 1019.32 1019.30 1019.38 1019.52 1019.65
1025.02 1024.80 1024.69 1024.66 1024.71 1024.80 1024.90 1024.99 1025.06 1025.11 1025.15 1025.22 1025.32 1025.47 1025.67 1025.91 1026.15 1026.35 1026.48 1026.50 1026.41 1026.20 1025.89 1025.53 1025.13 1024.74 1024.37 1024.03 1023.70 1023.36 1022.99 1022.57 1022.11 1021.60 1021.09 1020.62 1020.23 1019.95 1019.79 1019.78 1019.86 1020.01 1020.17
1025.27 1025.03 1024.89 1024.84 1024.86 1024.92 1024.98 1025.02 1025.04 1025.04 1025.05 1025.09 1025.19 1025.35 1025.59 1025.88 1026.18 1026.46 1026.68 1026.79 1026.79 1026.67 1026.45 1026.15 1025.81 1025.46 1025.10 1024.76 1024.41 1024.05 1023.65 1023.21 1022.73 1022.21 1021.70 1021.23 1020.83 1020.54 1020.38 1020.35 1020.42 1020.55 1020.70
1025.46 1025.21 1025.05 1024.98 1024.96 1024.98 1024.99 1024.98 1024.95 1024.91 1024.88 1024.90 1024.98 1025.15 1025.40 1025.71 1026.06 1026.39 1026.67 1026.85 1026.93 1026.90 1026.77 1026.55 1026.28 1025.99 1025.67 1025.36 1025.02 1024.67 1024.28 1023.84 1023.37 1022.88 1022.38 1021.93 1021.54 1021.26 1021.08 1021.02 1021.05 1021.14 1021.25
1025.62 1025.36 1025.18 1025.07 1025.02 1024.99 1024.96 1024.91 1024.84 1024.76 1024.70 1024.69 1024.76 1024.91 1025.15 1025.46 1025.81 1026.16 1026.47 1026.70 1026.84 1026.88 1026.83 1026.70 1026.52 1026.30 1026.06 1025.79 1025.51 1025.19 1024.83 1024.44 1024.00 1023.55 1023.10 1022.69 1022.33 1022.05 1021.86 1021.77 1021.75 1021.79 1021.84
1025.74 1025.46 1025.26 1025.13 1025.04 1024.97 1024.90 1024.81 1024.71 1024.61 1024.53 1024.50 1024.54 1024.67 1024.88 1025.16 1025.48 1025.81 1026.12 1026.37 1026.55 1026.65 1026.67 1026.63 1026.54 1026.41 1026.25 1026.07 1025.84 1025.59 1025.29 1024.95 1024.58 1024.20 1023.81 1023.45 1023.13 1022.88 1022.69 1022.57 1022.50 1022.47 1022.47
1025.82 1025.53 1025.31 1025.15 1025.02 1024.92 1024.82 1024.70 1024.58 1024.46 1024.37 1024.32 1024.34 1024.43 1024.60 1024.83 1025.10 1025.39 1025.66 1025.91 1026.11 1026.25 1026.35 1026.39 1026.40 1026.37 1026.30 1026.20 1026.06 1025.87 1025.64 1025.38 1025.08 1024.77 1024.46 1024.17 1023.91 1023.69 1023.51 1023.37 1023.27 1023.19 1023.12
1025.89 1025.58 1025.33 1025.13 1024.98 1024.84 1024.71 1024.58 1024.45 1024.32 1024.22 1024.15 1024.14 1024.19 1024.31 1024.48 1024.69 1024.92 1025.16 1025.38 1025.59 1025.77 1025.93 1026.06 1026.15 1026.22 1026.25 1026.23 1026.17 1026.06 1025.90 1025.71 1025.49 1025.26 1025.02 1024.80 1024.60 1024.43 1024.27 1024.14 1024.01 1023.89 1023.78
1025.97 1025.63 1025.35 1025.11 1024.92 1024.75 1024.60 1024.45 1024.31 1024.18 1024.06 1023.98 1023.94 1023.95 1024.01 1024.12 1024.26 1024.44 1024.63 1024.84 1025.05 1025.27 1025.48 1025.69 1025.87 1026.03 1026.14 1026.21 1026.22 1026.18 1026.09 1025.95 1025.80 1025.63 1025.47 1025.32 1025.18 1025.05 1024.94 1024.82 1024.69 1024.56 1024.42
1026.09 1025.72 1025.40 1025.12 1024.89 1024.69 1024.51 1024.34 1024.18 1024.03 1023.90 1023.79 1023.72 1023.69 1023.69 1023.74 1023.83 1023.95 1024.11 1024.30 1024.53 1024.78 1025.05 1025.32 1025.59 1025.83 1026.02 1026.16 1026.23 1026.24 1026.20 1026.11 1026.00 1025.89 1025.78 1025.69 1025.60 1025.53 1025.45 1025.37 1025.26 1025.13 1024.99
1026.29 1025.88 1025.53 1025.21 1024.94 1024.69 1024.47 1024.26 1024.07 1023.89 1023.73 1023.59 1023.48 1023.39 1023.35 1023.34 1023.38 1023.46 1023.59 1023.78 1024.02 1024.30 1024.62 1024.96 1025.29 1025.60 1025.87 1026.06 1026.19 1026.24 1026.24 1026.18 1026.11 1026.03 1025.96 1025.90 1025.87 1025.84 1025.80 1025.75 1025.67 1025.57 1025.44
1026.59 1026.16 1025.77 1025.42 1025.10 1024.81 1024.53 1024.27 1024.03 1023.79 1023.58 1023.38 1023.21 1023.08 1022.97 1022.92 1022.91 1022.96 1023.07 1023.25 1023.50 1023.81 1024.17 1024.56 1024.95 1025.32 1025.64 1025.89 1026.06 1026.15 1026.17 1026.15 1026.10 1026.04 1026.00 1025.97 1025.96 1025.96 1025.96 1025.94 1025.90 1025.83 1025.73
1027.02 1026.57 1026.16 1025.77 1025.41 1025.06 1024.72 1024.40 1024.08 1023.77 1023.48 1023.20 1022.96 1022.75 1022.59 1022.47 1022.41 1022.42 1022.51 1022.68 1022.93 1023.26 1023.65 1024.07 1024.50 1024.92 1025.28 1025.57 1025.79 1025.91 1025.97 1025.98 1025.95 1025.92 1025.89 1025.88 1025.89 1025.91 1025.92 1025.93 1025.92 1025.88 1025.83
1027.56 1027.12 1026.69 1026.28 1025.87 1025.47 1025.06 1024.65 1024.24 1023.84 1023.45 1023.08 1022.74 1022.45 1022.21 1022.02 1021.91 1021.87 1021.92 1022.07 1022.30 1022.62 1023.00 1023.43 1023.89 1024.33 1024.72 1025.06 1025.32 1025.50 1025.60 1025.65 1025.66 1025.65 1025.64 1025.65 1025.66 1025.69 1025.71 1025.73 1025.74 1025.73 1025.71
1028.19 1027.76 1027.34 1026.91 1026.47 1026.02 1025.54 1025.04 1024.54 1024.02 1023.52 1023.05 1022.61 1022.21 1021.88 1021.61 1021.43 1021.33 1021.32 1021.41 1021.59 1021.87 1022.22 1022.63 1023.08 1023.52 1023.95 1024.32 1024.63 1024.86 1025.03 1025.14 1025.20 1025.24 1025.26 1025.29 1025.31 1025.33 1025.36 1025.37 1025.39 1025.40 1025.41
1028.86 1028.46 1028.05 1027.63 1027.17 1026.67 1026.13 1025.55 1024.94 1024.33 1023.71 1023.12 1022.58 1022.08 1021.65 1021.29 1021.01 1020.83 1020.74 1020.75 1020.85 1021.05 1021.34 1021.70 1022.10 1022.53 1022.96 1023.36 1023.72 1024.03 1024.27 1024.46 1024.60 1024.70 1024.77 1024.82 1024.85 1024.88 1024.89 1024.91 1024.92 1024.93 1024.97
1029.49 1029.14 1028.76 1028.35 1027.88 1027.36 1026.77 1026.13 1025.44 1024.73 1024.02 1023.33 1022.68 1022.09 1021.56 1021.11 1020.74 1020.45 1020.26 1020.16 1020.16 1020.25 1020.43 1020.70 1021.04 1021.42 1021.83 1022.25 1022.65 1023.02 1023.35 1023.64 1023.86 1024.04 1024.17 1024.27 1024.33 1024.36 1024.37 1024.38 1024.38 1024.40 1024.44
1030.04 1029.74 1029.40 1029.01 1028.56 1028.03 1027.41 1026.73 1025.99 1025.22 1024.44 1023.67 1022.94 1022.27 1021.66 1021.12 1020.66 1020.27 1019.96 1019.74 1019.61 1019.57 1019.62 1019.77 1020.00 1020.31 1020.68 1021.09 1021.51 1021.94 1022.34 1022.72 1023.04 1023.30 1023.51 1023.66 1023.75 1023.81 1023.83 1023.83 1023.83 1023.85 1023.90
1030.48 1030.22 1029.93 1029.57 1029.14 1028.61 1028.00 1027.30 1026.54 1025.74 1024.92 1024.12 1023.35 1022.62 1021.96 1021.35 1020.81 1020.33 1019.92 1019.58 1019.31 1019.12 1019.03 1019.03 1019.14 1019.34 1019.63 1020.00 1020.42 1020.87 1021.32 1021.76 1022.16 1022.50 1022.79 1023.00 1023.14 1023.22 1023.27 1023.28 1023.28 1023.30 1023.36
Thickness
5724 5724 5723 5723 5723 5723 5722 5721 5720 5720 5720 5719 5718 5718 5717 5717 5717 5717 5717 5718 5719 5719 5719 5719 5719 5719 5720 5720 5721 5722 5722 5722 5721 5721 5721 5721 5721 5721 5720 5721 5720 5720 5719
5720 5720 5719 5718 5718 5718 5717 5717 5716 5715 5714 5714 5713 5712 5712 5711 5711 5712 5712 5712 5713 5713 5713 5713 5714 5714 5714 5715 5715 5716 5717 5716 5716 5715 5715 5716 5716 5716 5716 5715 5715 5715 5714
5717 5716 5715 5714 5714 5714 5713 5712 5711 5710 5709 5708 5707 5707 5706 5706 5706 5706 5706 5706 5706 5707 5707 5708 5708 5708 5708 5709 5709 5710 5710 5710 5710 5710 5710 5710 5711 5711 5711 5710 5710 5709 5708
5713 5712 5711 5710 5710 5709 5708 5707 5705 5704 5702 5702 5701 5701 5701 5700 5700 5700 5700 5700 5700 5700 5701 5701 5702 5702 5702 5703 5703 5704 5704 5704 5704 5704 5704 5705 5706 5706 5706 5705 5704 5704 5703
5709 5708 5707 5706 5706 5705 5704 5703 5700 5699 5697 5696 5696 5696 5695 5695 5695 5695 5694 5694 5694 5694 5694 5695 5696 5696 5696 5696 5697 5698 5698 5698 5698 5698 5699 5699 5700 5700 5701 5700 5700 5699 5698
5704 5704 5703 5702 5702 5700 5699 5698 5696 5695 5693 5692 5692 5690 5689 5689 5689 5688 5688 5688 5688 5688 5688 5688 5689 5690 5690 5690 5690 5691 5691 5691 5692 5693 5693 5694 5695 5695 5695 5695 5694 5694 5693
5700 5700 5699 5698 5697 5695 5694 5693 5692 5689 5687 5687 5685 5681 5681 5682 5682 5682 5682 5682 5682 5682 5682 5682 5683 5683 5683 5684 5684 5685 5685 5685 5686 5687 5687 5688 5690 5690 5690 5690 5689 5689 5688
5696 5696 5695 5693 5692 5691 5689 5689 5688 5684 5683 5683 5679 5674 5670 5671 5674 5676 5675 5675 5675 5676 5676 5676 5676 5677 5677 5678 5678 5679 5679 5679 5680 5681 5681 5681 5683 5684 5684 5684 5683 5683 5683
5692 5691 5690 5690 5689 5687 5685 5684 5684 5681 5678 5677 5677 5673 5665 5661 5662 5665 5667 5668 5668 5668 5669 5670 5670 5671 5671 5672 5673 5673 5673 5673 5674 5674 5675 5675 5676 5677 5677 5677 5677 5677 5677
5687 5687 5686 5686 5685 5684 5682 5681 5680 5679 5677 5673 5672 5671 5669 5665 5659 5655 5657 5660 5661 5661 5662 5663 5663 5664 5665 5665 5667 5667 5667 5667 5668 5668 5669 5669 5670 5671 5671 5670 5670 5671 5671
5682 5682 5682 5682 5681 5680 5678 5678 5676 5675 5673 5671 5668 5666 5663 5660 5658 5652 5649 5650 5652 5654 5655 5656 5657 5658 5659 5659 5660 5661 5661 5661 5662 5662 5662 5663 5663 5664 5664 5665 5665 5665 5665
5676 5677 5677 5677 5676 5675 5674 5674 5673 5671 5670 5668 5666 5663 5660 5656 5652 5649 5645 5643 5644 5646 5648 5650 5650 5651 5652 5653 5654 5655 5655 5654 5655 5655 5655 5655 5656 5657 5658 5658 5658 5658 5658
5669 5670 5672 5672 5671 5671 5670 5670 5668 5667 5665 5663 5661 5659 5657 5655 5652 5648 5643 5639 5638 5639 5641 5643 5644 5645 5646 5647 5647 5648 5649 5649 5649 5649 5648 5648 5649 5649 5650 5651 5651 5651 5651
5664 5665 5666 5667 5667 5666 5666 5665 5663 5662 5661 5659 5657 5655 5653 5651 5649 5646 5641 5637 5632 5632 5633 5635 5638 5639 5640 5641 5641 5642 5642 5642 5642 5642 5642 5642 5642 5642 5643 5643 5644 5644 5645
5661 5661 5661 5661 5661 5661 5661 5659 5658 5656 5655 5653 5651 5650 5647 5646 5644 5642 5640 5637 5631 5626 5626 5629 5631 5633 5634 5635 5635 5635 5635 5636 5636 5636 5635 5635 5635 5635 5635 5636 5637 5637 5638
5656 5656 5655 5655 5655 5655 5655 5654 5652 5651 5649 5647 5645 5644 5642 5640 5639 5637 5635 5633 5631 5627 5622 5624 5625 5627 5628 5629 5629 5628 5629 5629 5629 5629 5629 5628 5629 5629 5629 5629 5630 5630 5631
5650 5650 5650 5650 5649 5649 5649 5648 5647 5646 5643 5641 5640 5638 5637 5636 5634 5632 5630 5628 5626 5624 5619 5619 5620 5621 5622 5622 5623 5623 5623 5623 5623 5623 5623 5622 5622 5622 5623 5623 5623 5623 5624
5644 5644 5644 5643 5643 5643 5643 5642 5641 5640 5638 5636 5635 5634 5632 5631 5629 5627 5625 5623 5622 5621 5617 5614 5614 5615 5615 5616 5616 5616 5617 5617 5617 5617 5616 5616 5616 5616 5616 5617 5617 5617 5618
5638 5638 5637 5637 5637 5637 5637 5636 5635 5635 5634 5632 5631 5629 5627 5625 5623 5622 5620 5619 5617 5617 5614 5611 5609 5609 5609 5610 5610 5610 5610 5610 5611 5611 5611 5611 5611 5611 5611 5611 5612 5612 5612
5631 5631 5631 5630 5630 5631 5631 5630 5630 5629 5629 5628 5627 5625 5624 5622 5620 5618 5617 5615 5613 5610 5608 5606 5604 5603 5603 5603 5603 5603 5603 5604 5604 5605 5605 5605 5605 5605 5605 5606 5607 5607 5607
5625 5624 5624 5623 5623 5624 5625 5625 5625 5624 5623 5622 5621 5620 5620 5619 5618 5616 5614 5611 5609 5605 5603 5601 5599 5598 5597 5597 5597 5597 5597 5597 5598 5599 5599 5599 5600 5600 5600 5601 5602 5602 5602
5617 5617 5617 5616 5616 5617 5618 5619 5619 5618 5617 5616 5614 5614 5614 5613 5613 5612 5611 5610 5608 5604 5600 5597 5595 5595 5595 5594 5594 5593 5591 5590 5591 5594 5593 5594 5594 5594 5595 5596 5597 5598 5598
5610 5610 5610 5609 5609 5610 5612 5612 5612 5611 5610 5609 5609 5608 5609 5608 5607 5605 5605 5604 5603 5603 5602 5598 5594 5594 5593 5593 5591 5589 5588 5587 5587 5590 5589 5588 5589 5589 5591 5592 5592 5593 5593
5604 5603 5603 5603 5602 5603 5605 5606 5606 5604 5603 5603 5603 5603 5602 5602 5601 5600 5598 5597 5597 5596 5596 5596 5595 5595 5594 5592 5590 5589 5587 5584 5584 5584 5584 5583 5584 5584 5587 5588 5588 5588 5589
5598 5597 5596 5596 5595 5596 5598 5599 5599 5597 5596 5596 5597 5597 5597 5596 5596 5595 5593 5591 5590 5590 5591 5591 5591 5591 5590 5589 5587 5583 5580 5578 5578 5579 5579 5578 5579 5579 5581 5582 5583 5584 5584
5592 5590 5590 5589 5589 5589 5591 5592 5592 5590 5589 5589 5590 5590 5591 5591 5591 5590 5588 5586 5584 5584 5584 5584 5584 5584 5583 5583 5582 5580 5578 5574 5572 5573 5575 5574 5573 5573 5574 5577 5578 5579 5579